Panama City Tyndall AFB, FL

3:08 PM CST on December 06, 2019 (GMT -0600)
Tyndall Air Force Base

Weather History for KPAM - November, 2019

Change the Weather History Date:

Thursday, November 14, 2019

  Actual Average Record
Temperature  
Mean Temperature 50 °F -  
Max Temperature 55 °F 70 °F 78 °F (1998)
Min Temperature 46 °F 52 °F 38 °F (2013)
Degree Days  
Heating Degree Days 14    
Moisture  
Dew Point 42 °F    
Average Humidity 76    
Maximum Humidity 93    
Minimum Humidity 62    
Precipitation  
Precipitation 0.05 in - - ()
Sea Level Pressure  
Sea Level Pressure 30.16 in    
Wind  
Wind Speed 10 mph ()    
Max Wind Speed 15 mph    
Max Gust Speed 21 mph    
Visibility 10.0 miles    
Events Rain    
Averages and records for this station are not official NWS values.
T = Trace of Precipitation, MM = Missing Value Source: Averaged Metar Reports

Daily Weather History Graph

Daily Weather History Graph

Search for Another Location

Airport or City:

Astronomy

Nov. 14, 2019 Rise Set
Actual Time 6:06 AM CST 4:46 PM CST
Civil Twilight 5:41 AM CST 5:11 PM CST
Nautical Twilight 5:12 AM CST 5:40 PM CST
Astronomical Twilight 4:43 AM CST 6:09 PM CST
Moon 6:37 PM CST (11/14) 7:56 AM CST (11/14)
Length of Visible Light 11h 30m
Length of Day
10h 40m
Waning Gibbous, 95% of the Moon is Illuminated
Nov 14
Waning Gibbous
Nov 19
Last Quarter
Nov 26
New
Dec 4
First Quarter
Dec 11
Full

Hourly Weather History & Observations

Time (CST) Temp. Windchill Dew Point Humidity Pressure Visibility Wind Dir Wind Speed Gust Speed Precip Events Conditions
12:21 AM 48.2 °F - 35.6 °F 62% 30.21 in 10.0 mi ENE 9.2 mph - N/A   Overcast
12:56 AM 47.3 °F - 35.4 °F 63% 30.20 in 10.0 mi ENE 11.5 mph - N/A   Overcast
1:56 AM 47.5 °F - 36.3 °F 65% 30.19 in 10.0 mi ENE 11.5 mph 17.3 mph N/A   Overcast
2:56 AM 47.1 °F - 36.3 °F 66% 30.17 in 10.0 mi NE 13.8 mph 19.6 mph N/A   Overcast
3:06 AM 46.4 °F 41.1 °F 35.6 °F 66% 30.17 in 10.0 mi NE 11.5 mph - N/A   Overcast
3:46 AM 46.4 °F 40.4 °F 35.6 °F 66% 30.17 in 10.0 mi NE 13.8 mph 17.3 mph N/A   Overcast
3:56 AM 46.6 °F - 35.8 °F 66% 30.18 in 10.0 mi NE 8.1 mph 17.3 mph N/A   Overcast
4:06 AM 46.4 °F 41.9 °F 35.6 °F 66% 30.20 in 10.0 mi NE 9.2 mph - N/A   Overcast
4:56 AM 46.6 °F - 36.1 °F 67% 30.19 in 10.0 mi ENE 11.5 mph 17.3 mph N/A   Overcast
5:08 AM 46.4 °F 41.5 °F 35.6 °F 66% 30.20 in 10.0 mi NE 10.4 mph 18.4 mph N/A   Scattered Clouds
5:56 AM 46.4 °F 41.9 °F 36.5 °F 68% 30.18 in 10.0 mi NE 9.2 mph 19.6 mph N/A   Mostly Cloudy
6:56 AM 46.4 °F 42.4 °F 36.5 °F 68% 30.21 in 10.0 mi ENE 8.1 mph - N/A   Mostly Cloudy
7:56 AM 48.6 °F - 38.1 °F 67% 30.23 in 10.0 mi NE 8.1 mph - N/A   Overcast
8:56 AM 51.1 °F - 40.1 °F 66% 30.20 in 10.0 mi ENE 11.5 mph - N/A   Overcast
9:56 AM 52.7 °F - 41.2 °F 65% 30.20 in 10.0 mi NE 10.4 mph - N/A   Overcast
10:56 AM 54.1 °F - 42.3 °F 64% 30.19 in 10.0 mi NNE 9.2 mph - N/A   Overcast
11:56 AM 55.2 °F - 43.7 °F 65% 30.15 in 10.0 mi North 9.2 mph - N/A   Overcast
12:56 PM 54.5 °F - 42.6 °F 64% 30.15 in 10.0 mi North 8.1 mph - N/A   Overcast
12:57 PM 55.4 °F - 42.8 °F 63% 30.15 in 10.0 mi North 9.2 mph - N/A Rain Light Rain
1:07 PM 53.6 °F - 42.8 °F 67% 30.15 in 10.0 mi North 9.2 mph - N/A   Overcast
1:38 PM 53.6 °F - 42.8 °F 67% 30.14 in 10.0 mi North 9.2 mph - N/A Rain Light Rain
1:56 PM 53.4 °F - 43.9 °F 70% 30.13 in 10.0 mi NNE 8.1 mph - 0.00 in Rain Light Rain
2:51 PM 51.8 °F - 44.6 °F 76% 30.13 in 10.0 mi North 15.0 mph 18.4 mph N/A Rain Light Rain
2:56 PM 52.7 °F - 45.0 °F 75% 30.13 in 10.0 mi North 11.5 mph 18.4 mph 0.00 in Rain Light Rain
3:01 PM 51.8 °F - 44.6 °F 76% 30.14 in 10.0 mi North 10.4 mph - N/A Rain Light Rain
3:13 PM 51.8 °F - 44.6 °F 76% 30.14 in 10.0 mi North 10.4 mph - N/A   Mostly Cloudy
3:18 PM 51.8 °F - 44.6 °F 76% 30.15 in 10.0 mi NNE 12.7 mph - N/A   Scattered Clouds
3:19 PM 51.8 °F - 44.6 °F 76% 30.15 in 10.0 mi NNE 12.7 mph - N/A   Light Drizzle
3:28 PM 51.8 °F - 44.6 °F 76% 30.15 in 10.0 mi North 10.4 mph - N/A Rain Light Rain
3:30 PM 51.8 °F - 44.6 °F 76% 30.15 in 10.0 mi NNE 9.2 mph - N/A Rain Light Rain
3:56 PM 52.0 °F - 45.0 °F 77% 30.15 in 10.0 mi North 8.1 mph - 0.00 in Rain Light Rain
4:08 PM 51.8 °F - 44.6 °F 76% 30.15 in 10.0 mi NNE 8.1 mph - N/A Rain Light Rain
4:56 PM 51.4 °F - 45.9 °F 81% 30.15 in 10.0 mi NNE 9.2 mph - 0.00 in Rain Light Rain
5:56 PM 49.8 °F - 45.5 °F 85% 30.16 in 10.0 mi North 10.4 mph - 0.02 in Rain Light Rain
6:07 PM 50.0 °F - 46.4 °F 87% 30.16 in 10.0 mi North 12.7 mph 18.4 mph N/A Rain Light Rain
6:29 PM 50.0 °F - 44.6 °F 82% 30.16 in 10.0 mi North 13.8 mph 20.7 mph N/A   Overcast
6:31 PM 50.0 °F - 44.6 °F 82% 30.16 in 10.0 mi NNE 13.8 mph 20.7 mph N/A Rain Light Rain
6:36 PM 50.0 °F - 44.6 °F 82% 30.16 in 10.0 mi North 11.5 mph 20.7 mph N/A Rain Light Rain
6:41 PM 50.0 °F - 44.6 °F 82% 30.16 in 10.0 mi North 12.7 mph - N/A Rain Light Rain
6:56 PM 48.7 °F - 45.3 °F 88% 30.16 in 10.0 mi North 11.5 mph - 0.02 in Rain Light Rain
7:06 PM 48.2 °F - 44.6 °F 87% 30.16 in 10.0 mi NNE 13.8 mph 20.7 mph N/A Rain Light Rain
7:26 PM 48.2 °F - 44.6 °F 87% 30.16 in 10.0 mi NNE 12.7 mph 19.6 mph N/A Rain Light Rain
7:33 PM 48.2 °F - 44.6 °F 87% 30.16 in 10.0 mi NNE 15.0 mph 19.6 mph N/A   Overcast
7:56 PM 48.2 °F - 44.8 °F 88% 30.16 in 10.0 mi NNE 12.7 mph - 0.01 in   Overcast
8:34 PM 48.2 °F - 44.6 °F 87% 30.16 in 10.0 mi North 13.8 mph - N/A Rain Light Rain
8:49 PM 48.2 °F - 44.6 °F 87% 30.16 in 10.0 mi NNE 9.2 mph - N/A Rain Light Rain
8:53 PM 48.2 °F - 44.6 °F 87% 30.16 in 10.0 mi NNE 10.4 mph - N/A   Overcast
8:56 PM 48.2 °F - 45.1 °F 89% 30.16 in 10.0 mi NNE 10.4 mph - 0.00 in   Overcast
9:00 PM 48.2 °F - 44.6 °F 87% 30.16 in 10.0 mi NNE 9.2 mph - N/A Rain Light Rain
9:20 PM 48.2 °F - 44.6 °F 87% 30.16 in 10.0 mi NNE 11.5 mph - N/A Rain Light Rain
9:56 PM 47.8 °F - 45.0 °F 90% 30.16 in 10.0 mi NNE 12.7 mph - 0.00 in Rain Light Rain
10:01 PM 48.2 °F - 44.6 °F 87% 30.15 in 10.0 mi NNE 12.7 mph - N/A   Overcast
10:56 PM 48.2 °F - 45.3 °F 90% 30.15 in 10.0 mi NNE 11.5 mph - 0.00 in   Overcast
11:46 PM 48.2 °F - 46.4 °F 93% 30.13 in 10.0 mi North 12.7 mph - N/A Rain Light Rain
11:56 PM 48.2 °F - 45.7 °F 91% 30.15 in 10.0 mi North 10.4 mph - 0.00 in Rain Light Rain